Location: Aulus
(42.7909°N, 1.3399°E)
Time: 07:23:37
(UTC+00:00)

deb Kosmos- 1980 - Pass Details

Date: 22 October 2025
Orbit: 834 x 854 km, 71.0° (Epoch: 17 November)

Event Time Altitude Azimuth Distance (km) Brightness Sun altitude
Rises 18:28:17 0° 340° (NNW) 3,399 ? -16.7°
Reaches altitude 10° 18:30:54 10° 348° (NNW) 2,459 ? -17.2°
Maximum altitude 18:36:11 40° 58° (ENE) 1,211 ? -18.1°
Enters shadow 18:37:53 32° 97° (E) 1,392 ? -18.4°
